Other Public Products
Issued by NWS Grand Forks, ND

Home | Current Version | Previous Version | Text Only | Print | Product List | Glossary Off
Versions: 1 2 3 4 5 6 7 8 9 10 11 12 13 14 15 16 17 18 19 20 21 22 23 24 25 26 27 28 29 30 31 32 33 34 35 36 37 38 39 40 41 42 43 44 45 46 47 48 49 50

000
FPUS83 KFGF 200410
OPUFGF
PRAIRIE TO PINES WEATHER ROUNDUP
NATIONAL WEATHER SERVICE EASTERN NORTH DAKOTA/GRAND FORKS ND
1100 PM CDT TUE AUG 19 2014

 **SATELLITE DATA USED TO AUGMENT SKY COVER AT AUTOMATED STATIONS**
 *****  WEATHER ACROSS EASTERN NORTH DAKOTA  *****

CITY           SKY/WX    TMP DP  RH WIND       PRES   REMARKS
GRAND FORKS    CLEAR     70  64  81 SE7       29.75S
GRAND FORKS AF CLEAR     69  67  93 SE7       29.76S
GRAND CITY NWS   N/A     66 N/A N/A SE6         N/A
BUXTON         NOT AVBL
DEVILS LAKE    CLEAR     72  64  78 SE9       29.74S
FARGO          CLEAR     70  64  81 SE5       29.76S
WAHPETON ARPT  CLEAR     68  61  77 SE5       29.79R
$$

 *****  WEATHER ACROSS CENTRAL AND WESTERN NORTH DAKOTA  *****

CITY           SKY/WX    TMP DP  RH WIND       PRES   REMARKS
JAMESTOWN      CLEAR     67  63  87 S3        29.76S
BISMARCK       PTCLDY    69  63  81 E6        29.73R
MINOT          CLEAR     67  60  78 E5        29.70F
MINOT AFB      CLEAR     65  64  96 SE6       29.70S
GARRISON         N/A     71  66  84 SE8       29.72R
WILLISTON      CLEAR     78  60  53 SE12      29.65S
DICKINSON      PTCLDY    68  59  73 SE8       29.70S
HETTINGER      PTCLDY    72  57  59 E9        29.74S
$$

 *****  OTHER OBSERVATIONS NORTHEAST NORTH DAKOTA  *****

CITY           SKY/WX    TMP DP  RH WIND       PRES   REMARKS
WALHALLA         N/A     66  66 100 SE3         N/A
LANGDON        FAIR      66  64  94 SE8       29.77S
CAVALIER       FAIR      70  64  83 SE3       29.75S
GRAFTON        FAIR      66  64  94 SE6       29.75S
CANDO          FAIR      64  63  94 SE7       29.75S
FORT TOTTEN      N/A     70  63  79 SE6       29.95S
ROLLA          MOCLDY    57  57 100 S3        29.76S
RUGBY          NOT AVBL
 ***** THE ABOVE OBSERVATIONS ARE NON NWS ARE NOT QUALITY
        CONTROLLED AND MAY MIS-REPORT RAIN FOR SNOW...
$$

 *****  OTHER OBSERVATIONS SOUTHEAST NORTH DAKOTA *****

CITY           SKY/WX    TMP DP  RH WIND       PRES   REMARKS
COOPERSTOWN    NOT AVBL
VALLEY CITY    FAIR      72  72 100 SE8       29.78S
OAKES          NOT AVBL
GWINNER        CLEAR     70  70 100 SE7       29.79S
SHEYENNE NWR     N/A     66  65  96 E3        29.95S
BUFFALO        NOT AVBL
WYNDMERE       NOT AVBL
 ***** THE ABOVE OBSERVATIONS ARE NON NWS ARE NOT QUALITY
       CONTROLLED AND MAY MIS-REPORT RAIN FOR SNOW...
$$

  *****  WEATHER ACROSS NORTHERN MINNESOTA  *****

CITY           SKY/WX    TMP DP  RH WIND       PRES   REMARKS
FLAG ISLAND    CLEAR     66  63  88 CALM      29.79S
WARROAD        CLEAR     64  61  88 SE6       29.80S
ROSEAU         CLEAR     64  59  82 SE5       29.80R
HALLOCK        PTCLDY    70  63  78 SE7       29.76S
THF RVR FALLS  CLEAR     64  61  88 SE7       29.79S
HALSTAD          N/A     66  63  90 SE7         N/A
FOSSTON        CLEAR     59  54  82 CALM      29.81S
BAUDETTE       CLEAR     63  61  93 E3        29.81R
WASKISH        CLEAR     61  59  94 CALM      29.82R FOG
CROOKSTON      CLEAR     64  63  94 SE5       29.78S
$$
  *****  WEATHER ACROSS CENTRAL AND WEST MINNESOTA  *****

CITY           SKY/WX    TMP DP  RH WIND       PRES   REMARKS
BEMIDJI        CLEAR     62  61  95 CALM      29.82R
PARK RAPIDS    CLEAR     64  61  90 CALM      29.81S
WADENA         CLEAR     63  61  94 CALM      29.81S
DETROIT LAKES  CLEAR     68  63  83 CALM      29.81F
MOORHEAD       CLEAR     72  70  94 MISG      29.78S
FERGUS FALLS   MOCLDY    70  61  73 CALM      29.79R
ELBOW LAKE     FAIR      69  64  84 E5        29.79S
MORRIS MN      CLEAR     66  64  94 SE5       29.79S
STAPLES        CLEAR     63  61  94 CALM      29.81S
WHEATON        CLEAR     64  63  94 SE6       29.80S
$$
  *****  WEATHER ELSEWHERE ACROSS MINNESOTA  *****

CITY           SKY/WX    TMP DP  RH WIND       PRES   REMARKS
DULUTH         MOCLDY    64  59  83 CALM      29.82R
INTRNTL FALLS  CLEAR     53  53 100 CALM      29.81S
ELY            CLOUDY    63  61  94 CALM      29.83R
CLOQUET        MOCLDY    61  59  94 CALM      29.82S
BRAINERD       FOG       61  61 100 CALM      29.82R VSB 3/4
HIBBING        MOCLDY    62  59  90 CALM      29.82S
ALEXANDRIA     CLEAR     65  62  90 CALM      29.82S
SAINT CLOUD    CLEAR     67  63  87 CALM      29.80R
MINNEAPOLIS    MOCLDY    74  64  71 S3        29.79R
$$

  *****  WEATHER ACROSS SOUTH DAKOTA  *****

CITY           SKY/WX    TMP DP  RH WIND       PRES   REMARKS
SIOUX FALLS    MOCLDY    73  63  70 S3        29.82S
BROOKINGS      NOT AVBL
WATERTOWN      PTCLDY    68  62  81 S3        29.81S
HURON          PTCLDY    70  62  76 SE6       29.77S
SISSETON         N/A     66  65  96 CALM      29.78R
ABERDEEN       PTCLDY    64  63  96 SE7       29.77S
MITCHELL       PTCLDY    70  64  81 SE7       29.78F
PIERRE         PTCLDY    74  61  63 SE10      29.73R
MOBRIDGE       MOCLDY    73  63  70 SE10      29.72S
RAPID CITY     PTCLDY    69  60  73 SE6       29.75S
$$

  *****  SOME WEATHER IN NEARBY STATES *****

CITY           SKY/WX    TMP DP  RH WIND       PRES   REMARKS
GLASGOW MT     PTCLDY    74  47  38 NE5       29.60S
GREAT FALLS MT MOCLDY    70  46  42 N7        29.76R
CHEYENNE WY    CLOUDY    64  50  60 W12       30.00R
SCOTTSBLUFF NE CLOUDY    69  57  65 SE6       29.85R
OMAHA NE       MOCLDY    77  64  64 SE6       29.80S
DES MOINES IA  CLEAR     75  66  73 SE3       29.82R
DAVENPORT IA   CLEAR     65  62  90 W7        29.82R
CHICAGO IL     PTCLDY    72  62  71 W6        29.77R
EAU CLAIRE WI  CLOUDY    67  65  93 CALM      29.78R
LA CROSSE WI   CLEAR     69  65  86 CALM      29.77S
$$

  *****  SOME NATIONAL WEATHER *****

CITY           SKY/WX    TMP DP  RH WIND       PRES   REMARKS
LA GUARDIA NY  MOCLDY    72  65  78 SE6       29.94R
RALEIGH NC     PTCLDY    73  70  90 CALM      29.90R
ATLANTA GA     MOCLDY    76  70  82 W7        29.98R
NEW ORLEANS LA MOCLDY    82  74  76 CALM      29.99S
OKLAHOMA CITY  MOCLDY    82  67  60 S13       29.88R
ALBUQUERQUE NM MOCLDY    72  52  49 S10       30.04R
SALT LAKE CITY MOCLDY    70  55  59 S8        29.88R
LOS ANGELES CA CLOUDY    69  61  75 W7        29.88R
BOISE ID       CLOUDY    81  40  23 CALM      29.72F
SEATTLE WA     MOCLDY    67  56  67 SW13      29.82R
$$

*** WEATHER ACROSS MANITOBA...SASKATCHEWAN AND ONTARIO ***
                ***ONTARIO***

CITY           SKY/WX    TMP DP  RH WIND       PRES   REMARKS
GERALDTON      CLOUDY    61  57  88 E2        29.82S
THUNDER BAY    DRIZZLE   59  59 100 W3        29.80S FOG
SIOUX LOOKOUT  PTCLDY    59  57  94 S3        29.82S
TORONTO        MOCLDY    66  55  68 E8        29.84S
BIG TROUT LK   CLEAR     66  57  72 SE6       29.83R
PICKLE LAKE    NOT AVBL
DRYDEN         CLEAR     63  59  88 CALM      29.82S
KENORA         CLEAR     64  61  88 SE3       29.82S
$$
                *** MANITOBA***

CITY           SKY/WX    TMP DP  RH WIND       PRES   REMARKS
BRANDON        PTCLDY    64  61  88 E6        29.74R
DAUPHIN        CLEAR     66  61  82 SE3       29.71F
ISLAND LAKE    PTCLDY    68  63  83 SE3       29.76R
PILOT MOUND      N/A     66  63  88 SE9         N/A
THE PAS        CLEAR     70  63  78 SE9       29.63F
THOMPSON       MOCLDY    64  64 100 CALM      29.66S
WINNIPEG       PTCLDY    70  63  78 SE10      29.77R
LYNN LAKE      LGT RAIN  57  55  94 MISG      29.70S
CHURCHILL      CLOUDY    46  43  87 SE22      29.80F
GILLAM         CLOUDY    63  61  94 NE8       29.71S
$$
                ***SASKATCHEWAN***

CITY           SKY/WX    TMP DP  RH WIND       PRES   REMARKS
ESTEVAN        PTCLDY    68  61  77 SE13      29.68S
KINDERSLEY     CLOUDY    63  57  82 N7        29.65F
LLOYDMINSTER   MOCLDY    63  59  88 W7        29.68R
PRINCE ALBERT  MOCLDY    61  61 100 NW2       29.63S
REGINA         CLOUDY    68  64  88 E7        29.65F


USA.gov is the U.S. government's official web portal to all federal, state and local government web resources and services.